Helicity
190 82 51 76 33 -24 -24 -29 -75 -102 -82 -41 -28 -72 -71 -62 -45 -64 33 17 -24 66 65 11 186 123 80 111 113 198 205 133 175 162 115 139 171 130 140 168 157 139 192
163 97 106 67 93 64 11 15 13 -2 -17 -33 -62 -58 -33 -48 -41 -8 -8 76 -24 144 100 50 184 133 87 138 214 225 189 146 185 167 163 135 181 183 124 155 173 157 213
181 125 91 128 120 126 56 31 78 71 46 23 -16 -54 -5 -20 -11 70 34 1 54 126 128 96 164 166 102 204 265 232 188 178 234 179 207 225 226 157 189 158 193 208 207
165 173 92 102 132 139 95 58 70 70 39 3 -22 22 50 25 3 134 105 90 93 104 128 131 135 163 149 205 251 230 188 210 255 213 188 181 191 194 166 235 173 218 247
145 219 169 110 138 120 144 64 59 91 80 46 -22 33 82 40 34 63 161 144 175 144 132 125 202 202 230 271 302 230 185 245 299 310 315 250 117 115 177 196 191 234 223
122 156 188 143 104 98 85 105 56 80 59 112 67 5 104 77 45 138 172 250 170 148 220 226 308 406 372 350 353 361 393 446 405 472 314 252 138 167 229 238 204 200 200
113 108 171 201 169 145 157 130 109 55 64 94 144 111 44 111 79 63 206 298 206 308 362 372 386 477 398 367 456 454 544 474 413 474 247 142 128 199 202 193 229 234 197
153 124 77 204 223 213 234 215 183 131 84 131 167 191 136 126 120 35 109 307 293 389 386 326 333 404 542 482 432 549 502 488 343 266 184 120 172 266 228 220 273 245 223
160 151 62 93 197 243 278 267 213 151 90 121 190 160 230 209 182 64 74 331 431 455 363 325 374 336 404 421 501 549 497 336 262 215 120 174 194 243 170 161 183 235 248
56 39 87 97 146 204 293 339 347 211 157 118 196 224 386 374 228 96 84 352 440 373 318 316 300 404 374 424 472 512 422 377 202 235 302 340 304 144 102 149 170 220 285
72 48 41 43 48 130 169 268 444 242 218 178 215 311 351 414 191 116 312 358 288 223 235 247 366 416 365 431 479 467 368 185 257 549 360 358 171 132 132 156 179 199 233
56 53 39 31 22 38 110 161 185 164 180 157 301 228 256 227 293 328 309 255 229 208 218 283 349 344 409 422 448 374 286 338 229 372 391 232 113 114 122 161 181 196 191
44 108 69 63 70 89 100 151 212 233 197 121 227 198 340 336 320 325 292 236 204 187 218 288 360 443 389 317 316 297 256 243 461 382 246 137 120 132 111 129 189 238 226
88 88 129 113 100 110 142 188 202 172 136 153 221 278 301 187 187 204 259 304 303 317 343 385 451 377 301 246 253 190 244 372 308 253 173 154 128 140 134 140 161 192 227
107 87 139 218 176 193 213 222 245 248 223 234 333 330 207 177 199 232 231 236 235 256 272 287 286 265 236 221 199 277 318 291 262 197 181 133 127 106 96 122 145 171 193
128 110 115 256 219 215 273 316 299 300 294 311 321 310 232 225 207 249 246 224 221 218 233 213 209 213 213 225 306 333 270 252 222 198 154 116 86 68 56 73 83 121 182
170 166 220 299 259 287 365 367 290 292 350 359 286 286 303 312 293 281 294 319 300 243 219 216 216 302 286 308 296 276 278 234 181 131 117 114 93 75 101 104 115 137 147
307 313 343 325 373 345 299 273 277 272 256 273 249 234 220 227 252 313 326 294 278 274 253 237 224 217 197 198 174 175 178 145 111 109 103 116 104 110 125 164 174 173 179
424 394 335 306 322 300 265 274 269 260 246 225 202 206 240 282 285 255 236 220 195 193 184 149 131 156 196 147 150 150 123 124 140 132 133 157 172 239 234 214 227 231 230
359 316 354 316 291 290 296 274 250 237 230 223 232 242 259 284 316 312 288 271 257 242 231 243 217 193 192 182 216 164 196 217 182 143 123 114 130 149 182 216 234 246 235
350 377 339 294 270 277 272 271 250 239 239 251 278 335 368 276 236 215 232 233 223 218 199 167 147 163 270 297 290 261 194 177 151 139 139 145 145 171 161 163 208 214 196
323 319 306 292 269 253 249 248 252 274 325 337 303 258 223 194 202 203 182 177 218 217 209 221 211 221 241 251 258 255 224 176 142 141 142 153 140 126 126 153 148 152 174
310 273 308 271 242 233 235 281 288 271 265 262 235 196 188 231 260 278 266 327 286 293 265 246 232 274 262 231 303 250 206 170 148 148 151 124 119 119 160 123 134 142 161
246 284 299 289 293 283 281 304 301 287 290 273 259 267 316 325 315 306 344 334 340 298 262 255 261 260 265 237 189 157 138 143 146 155 133 132 139 131 158 134 127 117 119
276 323 331 322 327 370 391 341 335 330 354 364 360 347 332 331 395 390 359 273 266 246 249 248 247 229 226 206 178 153 132 136 136 128 127 131 162 167 147 133 129 115 112
354 367 375 392 409 411 413 393 406 431 421 433 437 388 398 395 341 278 287 269 163 163 188 204 206 185 199 196 177 158 135 124 103 126 132 166 183 174 150 131 121 109 97
Wind_Speed
40 42 45 48 55 56 57 54 56 52 56 55 55 56 47 45 48 51 35 22 41 23 16 23 6 8 10 6 6 17 21 23 30 36 36 34 28 33 34 28 25 27 27
37 41 43 43 45 49 51 52 53 53 53 49 48 47 39 41 40 27 22 10 44 12 10 4 10 12 14 13 13 16 22 23 22 35 43 48 38 34 31 30 25 29 31
31 38 42 44 45 47 52 52 50 51 51 48 46 45 37 35 33 25 17 14 15 3 4 8 18 12 16 20 18 21 23 23 23 26 35 46 46 53 36 27 28 28 33
34 36 42 44 47 47 48 49 48 48 47 46 41 36 30 30 28 19 15 10 10 8 15 14 17 23 22 30 26 28 29 26 27 25 29 37 42 54 55 36 33 32 38
34 38 42 45 44 42 44 44 43 43 41 40 40 31 27 28 26 13 9 6 4 11 13 18 19 31 32 40 35 38 24 22 30 38 40 51 53 41 44 53 51 41 41
30 33 36 37 38 39 39 39 41 39 39 36 37 34 22 21 20 14 10 10 10 10 11 17 18 24 29 32 38 38 22 30 33 34 37 52 52 48 50 53 54 54 47
23 26 32 34 34 37 37 34 38 38 38 36 32 32 32 20 21 17 20 10 8 6 7 9 9 18 30 30 27 17 26 33 35 40 52 50 50 49 53 56 62 62 54
25 26 31 33 32 36 36 37 35 37 38 32 28 29 31 20 14 21 19 18 14 10 6 11 15 14 20 17 16 20 26 31 43 49 48 44 48 53 55 58 58 63 60
22 23 26 25 29 33 34 35 33 33 34 31 30 30 23 20 16 34 24 21 15 14 12 12 14 22 22 18 20 24 28 35 36 42 39 45 50 55 53 50 47 54 63
21 7 23 21 24 27 32 38 41 34 30 31 30 28 24 26 16 26 25 19 19 18 17 19 22 23 24 23 25 28 28 35 34 37 40 45 47 55 48 49 50 50 54
19 20 18 22 18 24 29 36 25 23 16 25 29 27 29 27 21 15 17 18 21 22 23 23 23 26 28 28 27 29 32 30 34 38 37 46 51 50 49 49 51 52 55
18 16 16 20 25 25 21 12 19 18 18 20 24 20 20 21 21 20 21 23 24 23 23 25 26 28 28 27 26 28 33 33 30 36 41 50 57 49 48 48 55 58 57
17 16 14 16 18 22 25 28 21 18 21 24 25 20 19 23 20 23 22 23 26 29 29 27 27 27 28 28 27 32 30 29 30 33 47 61 53 54 55 56 57 57 57
12 18 12 12 14 14 17 20 25 26 25 24 22 17 17 20 25 24 25 29 30 32 33 31 28 27 28 26 31 27 27 28 34 39 52 55 55 55 57 59 59 60 65
20 21 13 9 11 14 12 11 15 17 16 15 15 16 19 24 23 24 26 30 32 35 35 32 30 27 26 27 23 25 27 31 39 47 52 54 56 62 63 63 64 65 67
23 24 20 8 10 11 10 10 10 13 15 16 20 22 22 22 25 27 28 29 31 32 31 28 27 26 24 20 23 26 31 38 42 47 55 59 63 64 66 62 62 60 65
19 19 12 10 11 8 8 9 9 8 12 16 20 22 24 26 28 30 32 33 33 30 30 28 27 28 27 24 26 31 39 42 46 54 59 60 57 58 61 64 67 69 68
21 18 14 12 10 8 8 6 6 7 9 13 17 20 22 24 26 29 32 32 31 31 31 30 28 28 28 26 31 35 42 48 53 54 53 57 61 66 74 77 80 80 77
19 15 10 8 8 6 2 3 5 8 11 15 17 19 21 24 27 28 27 27 27 29 30 28 28 31 32 31 35 42 46 50 54 58 63 70 74 75 83 86 90 91 90
8 6 5 4 5 5 3 4 7 10 14 16 17 19 21 23 25 28 29 30 31 32 33 35 36 37 39 38 40 44 51 59 63 65 70 74 77 83 87 91 93 99 97
1 1 1 3 3 2 2 6 9 12 13 15 18 21 24 24 25 26 28 29 30 31 32 34 35 36 33 40 45 51 56 63 70 72 75 73 78 86 92 92 91 90 90
4 4 6 4 3 2 1 4 8 10 14 18 20 22 23 24 25 25 25 26 30 32 34 37 38 37 37 42 51 58 63 68 75 79 79 82 88 92 92 90 87 87 85
6 7 6 6 4 2 3 6 9 12 14 17 19 21 22 25 27 30 31 34 36 38 41 43 43 44 43 46 59 65 71 72 77 77 82 88 90 88 86 85 91 89 82
10 8 8 7 5 5 8 10 12 13 16 18 21 23 26 28 30 32 37 37 40 43 44 47 50 52 54 58 63 68 71 75 78 82 85 84 84 81 86 88 87 86 84
11 10 10 11 11 12 13 15 16 15 18 21 24 28 28 29 33 37 42 39 42 43 47 49 52 54 58 61 65 72 76 79 82 85 83 84 84 87 87 86 84 85 85
11 12 14 14 16 17 18 18 18 18 20 24 28 30 32 34 34 35 40 42 39 43 44 45 48 52 52 62 69 74 76 80 81 81 83 85 86 88 87 87 86 86 86
Wind_Direction
110 113 117 117 124 130 129 129 137 134 138 142 153 163 153 160 167 179 162 154 170 145 139 174 335 330 321 329 335 333 331 333 338 332 332 331 329 339 345 352 353 350 354
114 126 126 126 129 134 140 141 143 146 150 150 157 163 155 165 168 157 160 148 179 141 147 194 304 314 307 308 312 317 322 324 329 330 331 331 336 330 338 340 342 343 346
121 134 140 139 140 143 151 153 150 153 157 157 159 166 158 162 166 163 160 168 159 205 259 277 306 306 299 301 301 304 312 318 325 327 332 332 332 334 332 332 337 337 334
138 140 150 153 154 153 154 158 159 160 163 165 164 161 160 168 169 162 163 176 194 272 297 293 295 307 308 310 302 304 306 314 317 319 322 328 329 328 331 331 326 327 327
148 150 155 161 160 159 162 164 166 167 167 169 176 170 168 170 173 171 166 169 283 290 285 299 295 302 310 311 311 307 309 314 319 316 322 322 324 319 324 326 331 322 320
150 156 158 161 166 167 169 171 175 177 178 177 180 183 180 181 181 184 211 211 217 260 268 303 310 312 310 308 312 307 299 308 316 318 320 322 317 317 319 319 323 321 326
156 162 167 167 170 174 176 178 181 185 185 185 186 192 194 197 203 209 208 224 258 297 265 293 295 299 303 300 311 305 305 310 314 317 315 316 314 317 318 319 321 321 324
167 173 178 180 180 180 183 185 188 191 193 194 198 196 197 218 258 243 265 285 255 257 274 294 297 302 318 305 303 306 306 312 311 311 313 314 316 319 319 317 321 320 321
193 187 192 192 192 192 192 194 196 199 200 205 209 209 215 227 237 262 245 282 291 297 293 294 296 306 309 304 303 304 308 314 316 317 314 315 319 321 319 320 321 319 319
335 330 193 207 207 204 202 201 202 201 208 212 217 223 221 210 253 221 241 287 299 302 297 296 299 309 312 307 307 309 309 314 313 318 318 323 321 321 317 318 319 319 317
343 335 326 306 283 218 217 213 242 191 227 226 231 231 232 244 268 248 284 302 310 310 307 306 308 309 311 310 310 312 314 305 312 321 323 321 324 319 319 317 318 316 315
358 0 356 332 310 297 294 240 235 245 243 254 267 247 257 269 289 296 309 313 316 318 313 310 308 311 313 312 307 307 314 311 306 319 323 323 324 320 318 313 311 312 314
334 352 1 340 325 310 297 289 284 278 283 290 286 292 294 295 303 315 317 318 317 319 317 313 311 315 317 314 311 315 310 312 319 320 324 324 323 320 318 316 314 313 312
327 329 346 349 336 328 309 298 295 296 302 300 304 304 312 318 320 321 324 327 327 326 325 322 317 317 318 316 316 316 314 319 323 323 324 323 321 320 319 318 314 311 311
319 326 329 348 342 336 332 324 312 318 325 322 330 327 327 328 330 328 328 330 330 328 327 325 323 322 320 320 323 326 325 320 320 322 325 324 325 323 319 317 314 313 313
308 313 315 328 328 333 339 331 316 317 325 326 326 328 330 333 334 335 335 332 332 334 336 335 332 329 329 331 331 329 326 323 323 322 325 323 322 319 315 314 312 309 310
312 315 310 315 315 322 331 331 319 328 330 328 326 326 329 331 333 334 335 335 337 340 341 341 340 339 341 340 336 331 330 327 325 325 325 324 325 324 322 320 318 315 312
311 314 307 303 312 322 326 341 347 342 342 338 337 336 336 338 340 339 339 342 344 346 346 347 347 344 340 337 334 332 330 328 326 327 327 326 326 327 326 324 322 319 316
307 308 309 301 296 303 342 11 358 352 341 338 337 338 340 340 342 344 349 352 353 351 350 350 347 344 346 340 335 332 333 331 332 333 332 331 331 332 331 328 324 321 319
308 298 303 297 285 284 288 313 328 333 333 338 342 345 346 348 349 351 352 354 353 351 351 349 347 343 339 339 344 341 337 333 332 332 330 329 328 327 328 326 324 320 318
275 321 215 215 218 223 278 311 324 327 338 344 346 347 348 349 351 351 351 351 351 349 347 346 347 347 352 349 347 344 339 335 331 331 332 333 332 331 328 326 324 321 321
227 187 170 170 164 167 264 320 327 340 339 339 340 343 346 347 348 351 351 350 350 346 345 344 344 349 349 347 343 340 339 337 333 332 332 332 332 330 330 330 329 327 325
229 187 181 173 177 233 290 308 318 327 333 337 339 342 346 346 346 346 345 346 345 341 338 336 335 337 342 341 340 338 337 336 334 334 333 333 333 333 334 335 335 334 333
217 207 199 203 222 274 295 304 314 323 328 332 337 340 341 342 345 345 342 340 339 338 336 333 331 333 334 335 336 336 335 334 334 334 334 334 334 336 337 337 337 337 335
228 230 241 255 270 289 299 306 312 318 323 329 333 335 336 338 338 340 338 338 340 338 334 335 335 333 332 334 336 335 334 333 333 333 334 335 337 338 338 338 338 338 337
240 252 265 270 283 294 301 308 315 318 321 324 329 330 331 332 334 333 332 339 340 339 339 340 338 336 338 336 335 334 334 333 333 333 334 336 338 338 338 338 338 339 338